Location: Le Castellard
(44.1862°N, 6.1301°E)
Time: 22:36:06
(UTC+00:00)

STARLINK-43 - Pass Details

Date: 18 January 2020
Orbit: 474 x 476 km, 53.0° (Epoch: 23 February)

Event Time Altitude Azimuth Distance (km) Brightness Sun altitude
Exits shadow 04:58:10 41° 22° (NNE) 700 4.2 -22.6°
Drops below altitude 10° 05:00:54 10° 50° (NE) 1,652 6.6 -22.1°
Sets 05:03:07 0° 55° (NE) 2,534 7.7 -21.7°
